Temp
-14 -14 -14 -15 -15 -15 -15 -15 -15 -15 -15 -15 -15 -15 -15 -15 -15 -15 -15 -16 -16 -15 -15 -15 -15 -15 -15 -15 -15 -15 -15 -15 -15 -15 -15 -15 -15 -15 -15 -15 -15 -15 -15 -15 -15 -15 -15 -15 -15 -14 -14 -14 -14 -14 -14 -14 -14 -14 -14 -14 -14 -14 -14 -14 -14 -14 -14 -14 -14 -14 -15 -14 -14 -14
-15 -15 -15 -15 -15 -15 -15 -15 -15 -15 -15 -15 -15 -15 -15 -15 -15 -15 -15 -16 -16 -16 -16 -16 -16 -16 -16 -16 -16 -16 -16 -15 -15 -15 -15 -15 -15 -15 -15 -15 -15 -15 -15 -15 -15 -15 -15 -15 -15 -15 -15 -15 -14 -14 -14 -15 -15 -14 -14 -14 -14 -14 -14 -14 -14 -14 -14 -14 -14 -14 -14 -14 -14 -14
-15 -15 -15 -15 -15 -15 -15 -15 -15 -15 -15 -15 -15 -15 -15 -15 -15 -15 -15 -15 -15 -16 -16 -16 -16 -16 -16 -16 -16 -16 -16 -16 -15 -15 -15 -15 -15 -16 -16 -16 -15 -15 -15 -15 -15 -15 -15 -15 -15 -15 -15 -15 -15 -15 -14 -14 -15 -15 -15 -14 -14 -14 -14 -14 -14 -14 -14 -14 -14 -14 -14 -14 -14 -14
-15 -15 -15 -15 -15 -15 -15 -15 -15 -15 -15 -15 -15 -15 -15 -15 -15 -15 -15 -15 -16 -16 -16 -16 -16 -16 -16 -16 -16 -16 -16 -16 -16 -16 -16 -16 -16 -16 -16 -16 -16 -16 -16 -16 -16 -16 -16 -16 -16 -15 -15 -15 -15 -15 -15 -15 -15 -15 -15 -15 -14 -14 -15 -14 -14 -14 -14 -14 -14 -14 -14 -15 -15 -14
-15 -15 -15 -15 -15 -15 -15 -15 -15 -15 -15 -15 -15 -15 -15 -15 -15 -16 -16 -16 -16 -16 -16 -16 -16 -16 -16 -16 -16 -16 -16 -16 -16 -16 -16 -16 -16 -17 -17 -17 -17 -17 -17 -17 -17 -17 -17 -17 -17 -17 -16 -16 -16 -16 -15 -15 -15 -15 -15 -15 -15 -15 -15 -15 -14 -14 -14 -14 -14 -14 -15 -15 -15 -14
-15 -15 -15 -15 -15 -15 -15 -15 -15 -15 -15 -15 -15 -15 -15 -16 -16 -16 -16 -16 -16 -16 -16 -16 -16 -16 -16 -16 -16 -16 -16 -16 -17 -17 -17 -18 -18 -18 -18 -18 -18 -18 -18 -18 -18 -18 -18 -18 -18 -18 -18 -17 -17 -17 -16 -16 -16 -15 -15 -15 -15 -15 -15 -15 -15 -14 -14 -14 -14 -14 -15 -15 -15 -14
-15 -15 -15 -15 -15 -15 -15 -15 -15 -15 -15 -15 -15 -15 -15 -16 -16 -16 -16 -16 -16 -16 -16 -16 -16 -16 -16 -16 -16 -17 -17 -17 -18 -18 -19 -19 -19 -19 -19 -19 -19 -19 -18 -18 -18 -18 -18 -18 -18 -18 -18 -18 -18 -18 -17 -17 -17 -16 -16 -15 -15 -15 -15 -15 -15 -15 -14 -14 -14 -14 -14 -14 -14 -14
-15 -15 -15 -15 -15 -15 -15 -15 -15 -15 -15 -15 -15 -15 -16 -16 -16 -16 -16 -16 -16 -16 -16 -16 -16 -16 -16 -17 -17 -17 -18 -19 -19 -19 -19 -19 -19 -19 -19 -19 -19 -19 -19 -19 -19 -19 -18 -18 -19 -19 -19 -18 -18 -18 -18 -18 -17 -17 -17 -16 -16 -16 -15 -15 -15 -15 -15 -15 -15 -14 -14 -14 -15 -15
-15 -15 -15 -15 -15 -15 -15 -15 -15 -15 -15 -15 -16 -16 -16 -16 -16 -16 -16 -16 -16 -16 -16 -16 -16 -17 -17 -17 -18 -18 -19 -19 -20 -20 -20 -20 -20 -20 -20 -20 -20 -19 -19 -19 -19 -19 -19 -19 -19 -19 -19 -19 -19 -19 -18 -18 -18 -18 -17 -17 -17 -16 -16 -16 -15 -15 -15 -15 -15 -15 -14 -15 -15 -15
-15 -15 -15 -15 -15 -15 -15 -15 -15 -15 -15 -16 -16 -16 -16 -16 -16 -16 -16 -16 -16 -16 -16 -17 -17 -17 -18 -18 -19 -19 -20 -20 -20 -20 -20 -20 -20 -20 -20 -20 -20 -20 -20 -20 -20 -20 -20 -20 -20 -20 -20 -20 -20 -19 -19 -19 -19 -18 -18 -18 -17 -17 -17 -16 -16 -16 -15 -15 -15 -15 -15 -15 -15 -15
-15 -15 -15 -15 -15 -15 -15 -15 -15 -15 -16 -16 -16 -16 -16 -16 -16 -16 -16 -16 -16 -17 -17 -17 -18 -18 -19 -19 -20 -20 -20 -20 -20 -20 -20 -20 -20 -21 -20 -20 -20 -20 -20 -20 -20 -20 -20 -20 -20 -20 -20 -20 -20 -20 -20 -20 -19 -19 -19 -18 -18 -17 -17 -17 -16 -16 -16 -15 -15 -15 -15 -15 -15 -15
-15 -15 -15 -15 -15 -15 -15 -15 -16 -16 -16 -16 -16 -16 -16 -16 -16 -16 -17 -17 -17 -17 -17 -18 -18 -19 -20 -20 -20 -20 -21 -21 -21 -20 -20 -20 -21 -21 -21 -20 -20 -20 -20 -20 -20 -20 -20 -20 -20 -20 -20 -20 -19 -19 -20 -20 -20 -19 -19 -19 -18 -18 -17 -17 -17 -17 -16 -16 -16 -15 -15 -15 -15 -15
-15 -15 -15 -15 -15 -15 -16 -16 -16 -16 -16 -16 -16 -16 -16 -16 -17 -17 -17 -17 -17 -18 -18 -19 -19 -20 -20 -21 -21 -21 -21 -21 -21 -20 -21 -21 -21 -21 -21 -21 -21 -20 -20 -20 -20 -20 -20 -20 -20 -20 -20 -19 -19 -19 -19 -19 -19 -19 -19 -19 -19 -18 -18 -17 -17 -17 -17 -17 -16 -16 -15 -15 -15 -15
-15 -15 -15 -15 -15 -16 -16 -16 -16 -16 -16 -16 -16 -16 -16 -17 -17 -17 -17 -17 -18 -18 -19 -19 -20 -20 -21 -21 -21 -21 -21 -21 -21 -21 -21 -21 -21 -21 -21 -21 -21 -21 -20 -20 -20 -21 -20 -20 -20 -20 -19 -19 -19 -19 -19 -19 -19 -19 -19 -19 -19 -19 -18 -18 -18 -17 -17 -17 -17 -16 -16 -15 -15 -15
-15 -15 -15 -16 -16 -16 -16 -16 -16 -16 -16 -16 -16 -17 -17 -17 -17 -17 -17 -18 -18 -19 -19 -20 -20 -21 -21 -21 -21 -21 -21 -21 -21 -21 -21 -21 -21 -21 -21 -21 -21 -21 -21 -20 -20 -21 -21 -20 -19 -19 -19 -19 -19 -19 -19 -19 -19 -19 -19 -19 -19 -19 -19 -19 -18 -18 -17 -17 -17 -17 -16 -16 -15 -15
-15 -16 -16 -16 -16 -16 -16 -16 -16 -16 -16 -16 -17 -17 -17 -17 -17 -17 -18 -18 -19 -19 -20 -20 -21 -21 -21 -21 -21 -21 -21 -21 -21 -21 -21 -21 -21 -21 -21 -21 -21 -21 -21 -21 -21 -21 -21 -20 -20 -19 -19 -19 -19 -19 -19 -19 -19 -19 -19 -19 -19 -19 -19 -19 -19 -18 -18 -17 -17 -17 -17 -16 -16 -16
-16 -16 -16 -16 -16 -16 -16 -16 -16 -16 -16 -16 -17 -17 -17 -17 -17 -18 -18 -18 -19 -19 -20 -21 -21 -21 -21 -21 -21 -21 -21 -22 -22 -22 -22 -22 -22 -22 -22 -22 -21 -21 -21 -21 -21 -21 -21 -20 -20 -20 -19 -19 -19 -19 -19 -19 -19 -19 -19 -19 -19 -19 -19 -20 -19 -19 -18 -18 -17 -17 -17 -17 -16 -16
-16 -16 -16 -16 -16 -16 -16 -16 -16 -16 -16 -17 -17 -17 -17 -17 -18 -18 -18 -19 -19 -20 -20 -21 -21 -21 -21 -21 -21 -21 -22 -22 -22 -22 -22 -22 -22 -22 -22 -22 -22 -22 -22 -21 -21 -21 -20 -20 -20 -20 -20 -19 -19 -19 -19 -19 -19 -19 -19 -19 -19 -19 -20 -20 -20 -19 -19 -18 -18 -18 -17 -17 -17 -16
-16 -16 -16 -16 -16 -16 -16 -16 -16 -16 -17 -17 -17 -17 -17 -18 -18 -18 -19 -19 -20 -20 -21 -21 -21 -21 -21 -21 -22 -22 -22 -22 -22 -22 -22 -22 -22 -22 -22 -22 -22 -22 -22 -22 -21 -21 -21 -20 -20 -20 -20 -20 -19 -19 -19 -19 -19 -19 -19 -19 -19 -19 -20 -20 -20 -20 -20 -19 -18 -18 -18 -17 -17 -17
-16 -16 -16 -16 -16 -16 -16 -16 -16 -17 -17 -17 -17 -17 -18 -18 -18 -19 -19 -20 -20 -21 -21 -21 -21 -21 -21 -22 -22 -22 -22 -22 -22 -22 -22 -22 -22 -22 -22 -22 -22 -22 -22 -22 -22 -22 -22 -21 -21 -20 -20 -20 -20 -20 -19 -19 -19 -19 -19 -19 -19 -20 -20 -20 -20 -20 -20 -20 -19 -18 -18 -18 -17 -17
-16 -16 -16 -16 -16 -16 -16 -16 -17 -17 -17 -17 -17 -18 -18 -18 -18 -19 -19 -20 -20 -21 -21 -21 -21 -21 -22 -22 -22 -22 -22 -22 -22 -22 -22 -22 -22 -22 -22 -22 -22 -22 -22 -22 -22 -22 -22 -22 -22 -21 -21 -21 -21 -20 -20 -20 -19 -19 -19 -19 -20 -20 -20 -20 -20 -20 -20 -20 -20 -19 -18 -18 -17 -17
-16 -16 -16 -16 -16 -16 -16 -17 -17 -17 -17 -17 -18 -18 -18 -18 -18 -19 -19 -20 -21 -21 -21 -21 -21 -22 -22 -22 -22 -22 -22 -22 -22 -22 -22 -22 -22 -22 -22 -22 -22 -22 -22 -22 -22 -22 -22 -22 -22 -22 -21 -21 -21 -21 -20 -20 -20 -19 -19 -19 -20 -20 -20 -20 -20 -20 -20 -20 -20 -20 -19 -18 -18 -17
-16 -16 -16 -17 -16 -17 -17 -17 -17 -17 -17 -18 -18 -18 -18 -18 -19 -19 -20 -20 -21 -21 -21 -21 -21 -22 -22 -22 -22 -22 -22 -22 -22 -22 -22 -22 -22 -22 -22 -22 -22 -22 -22 -22 -22 -22 -22 -22 -22 -22 -22 -21 -21 -21 -21 -20 -20 -20 -20 -20 -20 -19 -19 -20 -20 -20 -20 -20 -20 -20 -19 -18 -18 -18
-16 -17 -17 -17 -17 -17 -17 -17 -17 -17 -18 -18 -18 -18 -18 -19 -19 -20 -20 -21 -21 -21 -21 -21 -22 -22 -22 -22 -22 -22 -22 -22 -22 -22 -22 -22 -22 -22 -22 -22 -22 -22 -22 -22 -22 -22 -22 -22 -22 -22 -22 -22 -21 -21 -21 -21 -20 -20 -20 -20 -20 -19 -19 -20 -20 -20 -20 -20 -20 -20 -20 -19 -18 -18
-17 -17 -17 -17 -17 -17 -17 -17 -17 -18 -18 -18 -18 -18 -19 -19 -20 -20 -21 -21 -21 -21 -22 -22 -22 -22 -22 -22 -22 -22 -22 -22 -22 -22 -22 -22 -22 -22 -22 -22 -22 -22 -22 -22 -22 -22 -22 -22 -22 -22 -22 -22 -22 -21 -21 -21 -20 -20 -20 -20 -20 -20 -20 -20 -20 -20 -20 -20 -20 -20 -20 -19 -19 -18
-17 -17 -17 -17 -17 -17 -17 -17 -18 -18 -18 -18 -18 -19 -19 -20 -20 -20 -21 -21 -22 -22 -22 -22 -22 -22 -22 -22 -22 -22 -22 -22 -22 -22 -22 -22 -22 -22 -22 -22 -22 -22 -22 -22 -22 -22 -22 -22 -22 -22 -22 -22 -22 -22 -22 -21 -21 -20 -20 -20 -20 -20 -20 -20 -20 -20 -20 -20 -20 -20 -20 -20 -19 -18
-17 -17 -17 -17 -17 -17 -17 -18 -18 -18 -18 -18 -19 -19 -20 -20 -20 -21 -21 -22 -22 -22 -22 -22 -22 -22 -22 -22 -22 -22 -22 -22 -22 -22 -22 -22 -22 -22 -22 -22 -22 -22 -22 -22 -22 -22 -22 -22 -22 -22 -22 -22 -22 -22 -22 -22 -21 -21 -21 -21 -21 -20 -20 -20 -20 -20 -20 -20 -20 -20 -20 -19 -19 -18
-17 -17 -17 -17 -17 -17 -18 -18 -18 -18 -18 -19 -19 -20 -20 -20 -21 -21 -21 -22 -22 -22 -22 -22 -22 -22 -22 -22 -22 -22 -22 -22 -22 -22 -22 -22 -22 -22 -22 -22 -22 -22 -22 -22 -21 -21 -22 -22 -22 -22 -22 -22 -22 -22 -22 -22 -22 -21 -21 -21 -21 -21 -20 -20 -20 -20 -20 -20 -20 -20 -20 -19 -19 -19
-17 -17 -17 -17 -17 -18 -18 -18 -18 -19 -19 -19 -19 -20 -20 -20 -21 -21 -22 -22 -22 -22 -22 -22 -22 -22 -22 -22 -22 -22 -22 -22 -22 -22 -22 -22 -22 -22 -22 -22 -22 -22 -22 -22 -21 -21 -21 -21 -21 -21 -21 -21 -21 -22 -22 -22 -22 -22 -21 -21 -21 -21 -21 -20 -20 -20 -20 -20 -20 -20 -20 -20 -20 -19
-17 -17 -17 -17 -18 -18 -18 -18 -19 -19 -19 -19 -20 -20 -20 -21 -21 -21 -22 -22 -22 -22 -22 -22 -22 -23 -23 -23 -23 -23 -22 -22 -22 -22 -22 -22 -22 -22 -22 -22 -22 -22 -22 -22 -22 -21 -21 -21 -21 -21 -21 -21 -21 -21 -21 -22 -22 -22 -22 -22 -21 -21 -21 -21 -20 -20 -20 -20 -20 -20 -20 -20 -20 -20
-17 -17 -18 -18 -18 -18 -18 -19 -19 -19 -19 -20 -20 -20 -21 -21 -21 -22 -22 -22 -22 -22 -22 -23 -23 -23 -23 -23 -23 -23 -23 -23 -23 -23 -22 -22 -22 -22 -22 -22 -22 -22 -22 -22 -22 -22 -21 -21 -21 -21 -21 -21 -21 -21 -21 -21 -21 -21 -22 -22 -22 -21 -21 -21 -21 -21 -20 -20 -20 -20 -20 -20 -20 -20
-18 -18 -18 -18 -18 -18 -19 -19 -19 -19 -19 -20 -20 -20 -21 -21 -21 -22 -22 -22 -22 -23 -23 -23 -23 -23 -23 -23 -23 -23 -23 -23 -23 -23 -23 -23 -23 -23 -22 -22 -22 -22 -22 -22 -22 -22 -22 -21 -21 -21 -21 -21 -21 -21 -21 -21 -21 -21 -21 -21 -22 -22 -21 -21 -21 -21 -20 -20 -20 -20 -20 -20 -20 -19
-18 -18 -18 -18 -18 -18 -19 -19 -19 -19 -20 -20 -20 -21 -21 -21 -22 -22 -22 -22 -23 -23 -23 -23 -23 -23 -23 -23 -23 -23 -23 -23 -23 -23 -23 -23 -23 -23 -23 -22 -22 -22 -22 -22 -22 -22 -22 -22 -22 -21 -21 -21 -21 -21 -21 -21 -21 -21 -21 -21 -21 -21 -21 -21 -21 -21 -21 -21 -20 -20 -20 -20 -20 -20
-18 -18 -18 -18 -18 -19 -19 -19 -19 -20 -20 -20 -21 -21 -21 -22 -22 -22 -22 -23 -23 -23 -23 -23 -23 -23 -23 -23 -23 -23 -23 -23 -23 -23 -23 -23 -23 -23 -23 -23 -23 -22 -22 -22 -22 -22 -22 -22 -22 -22 -21 -21 -21 -21 -21 -21 -21 -21 -21 -21 -21 -21 -21 -21 -21 -21 -21 -21 -21 -20 -20 -20 -20 -20
-18 -18 -18 -18 -19 -19 -19 -19 -20 -20 -20 -20 -21 -21 -22 -22 -22 -22 -23 -23 -23 -23 -23 -23 -23 -23 -23 -23 -23 -23 -23 -23 -23 -23 -23 -23 -23 -23 -23 -23 -23 -22 -22 -22 -22 -22 -22 -22 -22 -22 -22 -21 -21 -21 -21 -21 -21 -21 -21 -21 -21 -21 -21 -21 -21 -21 -21 -21 -21 -21 -21 -20 -20 -20
-18 -18 -18 -19 -19 -19 -19 -20 -20 -20 -20 -21 -21 -21 -22 -22 -22 -22 -23 -23 -23 -23 -23 -23 -23 -23 -23 -23 -23 -23 -23 -23 -23 -23 -23 -23 -23 -23 -23 -23 -23 -22 -22 -22 -22 -22 -22 -22 -22 -22 -21 -21 -21 -21 -21 -21 -21 -21 -21 -21 -21 -21 -21 -21 -21 -21 -21 -21 -21 -21 -21 -21 -20 -20
-18 -18 -19 -19 -19 -19 -19 -20 -20 -20 -20 -21 -21 -21 -22 -22 -22 -23 -23 -23 -23 -23 -23 -23 -23 -23 -23 -23 -23 -23 -23 -23 -23 -23 -23 -23 -23 -23 -23 -23 -23 -22 -22 -22 -22 -22 -22 -22 -22 -22 -22 -21 -21 -21 -21 -21 -21 -21 -21 -21 -21 -21 -21 -21 -21 -21 -21 -21 -21 -21 -21 -21 -21 -21
-19 -19 -19 -19 -19 -19 -20 -20 -20 -20 -21 -21 -21 -22 -22 -22 -23 -23 -23 -23 -23 -23 -23 -23 -23 -23 -23 -23 -23 -23 -23 -23 -23 -23 -23 -23 -23 -23 -23 -23 -23 -23 -22 -22 -22 -22 -22 -22 -22 -22 -22 -22 -22 -22 -21 -21 -21 -21 -21 -21 -21 -21 -21 -21 -21 -21 -21 -21 -21 -21 -21 -21 -21 -21
-19 -19 -19 -19 -19 -20 -20 -20 -20 -21 -21 -21 -21 -22 -22 -22 -23 -23 -23 -23 -23 -23 -23 -23 -23 -23 -23 -24 -24 -23 -23 -23 -23 -23 -23 -23 -23 -23 -23 -23 -23 -23 -23 -23 -22 -22 -22 -22 -22 -22 -22 -22 -22 -22 -22 -21 -21 -21 -21 -21 -21 -21 -21 -21 -21 -21 -21 -21 -21 -21 -21 -21 -21 -21
-19 -19 -19 -19 -20 -20 -20 -20 -21 -21 -21 -21 -21 -22 -22 -23 -23 -23 -23 -23 -23 -23 -24 -24 -24 -24 -24 -24 -24 -24 -24 -24 -23 -23 -23 -23 -23 -23 -23 -23 -23 -23 -23 -23 -23 -23 -22 -22 -22 -22 -22 -22 -22 -22 -22 -22 -22 -22 -22 -21 -21 -21 -21 -21 -21 -21 -21 -21 -21 -21 -21 -21 -21 -21
-19 -19 -19 -20 -20 -20 -20 -21 -21 -21 -21 -21 -22 -22 -22 -23 -23 -23 -23 -23 -23 -24 -24 -24 -24 -24 -24 -24 -24 -24 -24 -24 -23 -23 -23 -23 -23 -23 -23 -23 -23 -23 -23 -23 -23 -23 -23 -23 -23 -23 -22 -22 -22 -22 -22 -22 -22 -22 -22 -22 -22 -22 -22 -21 -21 -21 -21 -21 -21 -21 -21 -21 -21 -21
-19 -20 -20 -20 -20 -20 -21 -21 -21 -21 -21 -21 -22 -22 -22 -23 -23 -23 -23 -23 -24 -24 -24 -24 -24 -24 -24 -24 -24 -24 -24 -24 -24 -23 -23 -23 -23 -23 -23 -23 -23 -23 -23 -23 -23 -23 -23 -23 -23 -23 -23 -23 -22 -22 -22 -22 -22 -22 -22 -22 -22 -22 -22 -22 -22 -22 -22 -21 -21 -21 -21 -21 -21 -21
-20 -20 -20 -20 -21 -21 -21 -21 -21 -21 -21 -22 -22 -22 -22 -23 -23 -23 -23 -23 -24 -24 -24 -24 -24 -24 -24 -24 -24 -24 -24 -24 -24 -24 -23 -23 -23 -23 -23 -23 -23 -23 -23 -23 -23 -23 -23 -23 -23 -23 -23 -23 -23 -22 -22 -22 -22 -22 -22 -22 -22 -22 -22 -22 -22 -22 -22 -22 -22 -22 -22 -21 -21 -21
-20 -20 -20 -21 -21 -21 -21 -21 -21 -21 -22 -22 -22 -22 -23 -23 -23 -23 -24 -24 -24 -24 -24 -24 -24 -24 -24 -24 -24 -24 -24 -24 -24 -24 -24 -24 -24 -24 -23 -23 -23 -23 -23 -23 -23 -23 -23 -23 -23 -23 -23 -23 -23 -23 -22 -22 -22 -23 -23 -23 -23 -23 -22 -22 -22 -22 -22 -22 -22 -22 -22 -22 -22 -22
-20 -21 -21 -21 -21 -21 -21 -22 -22 -22 -22 -22 -22 -23 -23 -23 -23 -24 -24 -24 -24 -24 -24 -24 -24 -24 -24 -24 -24 -24 -24 -24 -24 -24 -24 -24 -24 -24 -24 -23 -23 -23 -23 -23 -23 -23 -23 -23 -23 -23 -23 -23 -23 -23 -23 -23 -23 -23 -23 -23 -23 -23 -23 -23 -23 -23 -22 -22 -22 -22 -22 -22 -22 -22
Height
5801 5800 5799 5797 5796 5795 5793 5791 5789 5787 5785 5783 5780 5778 5775 5773 5770 5768 5765 5762 5760 5757 5755 5753 5750 5747 5744 5741 5739 5736 5733 5730 5726 5723 5720 5717 5713 5710 5707 5705 5702 5700 5697 5695 5692 5690 5688 5686 5685 5683 5682 5682 5683 5683 5683 5682 5683 5684 5685 5686 5688 5689 5689 5689 5691 5692 5693 5695 5698 5699 5699 5701 5703 5704
5799 5797 5796 5795 5793 5791 5790 5788 5786 5784 5782 5779 5777 5774 5771 5769 5767 5764 5762 5759 5757 5754 5751 5748 5746 5743 5740 5737 5733 5730 5727 5723 5720 5716 5713 5709 5706 5703 5700 5697 5695 5692 5689 5687 5684 5682 5679 5678 5676 5674 5673 5672 5673 5674 5674 5674 5674 5675 5676 5678 5679 5682 5682 5683 5684 5686 5687 5689 5692 5693 5694 5696 5697 5699
5796 5794 5793 5792 5790 5788 5786 5785 5783 5780 5778 5776 5773 5770 5768 5765 5763 5761 5758 5756 5753 5750 5747 5743 5741 5738 5734 5731 5727 5723 5720 5716 5712 5709 5705 5701 5697 5694 5691 5688 5686 5683 5680 5678 5675 5673 5670 5668 5666 5665 5664 5663 5663 5663 5664 5665 5665 5666 5667 5669 5671 5673 5675 5676 5676 5679 5681 5683 5685 5686 5688 5689 5691 5693
5793 5791 5790 5789 5787 5785 5783 5781 5779 5777 5775 5772 5769 5766 5764 5762 5759 5757 5755 5752 5749 5746 5743 5739 5735 5732 5728 5725 5721 5717 5712 5707 5704 5700 5696 5692 5688 5685 5681 5679 5676 5673 5670 5668 5665 5663 5661 5658 5656 5655 5654 5653 5653 5653 5654 5655 5656 5657 5658 5660 5662 5664 5666 5668 5669 5671 5674 5677 5678 5679 5680 5682 5684 5687
5790 5789 5787 5786 5784 5782 5780 5778 5776 5774 5771 5768 5766 5763 5761 5759 5756 5754 5751 5748 5745 5741 5738 5735 5731 5727 5723 5718 5714 5710 5705 5700 5695 5691 5687 5683 5679 5675 5672 5669 5666 5663 5660 5658 5656 5653 5651 5648 5646 5645 5643 5643 5642 5642 5643 5644 5646 5647 5649 5651 5653 5654 5657 5660 5662 5663 5666 5669 5671 5672 5673 5676 5679 5682
5787 5786 5784 5782 5780 5778 5777 5775 5772 5770 5768 5765 5763 5761 5758 5755 5753 5750 5747 5744 5740 5737 5734 5730 5726 5722 5717 5713 5708 5703 5698 5693 5688 5683 5679 5675 5671 5667 5664 5660 5657 5654 5651 5648 5646 5644 5642 5640 5638 5636 5635 5634 5633 5632 5632 5633 5635 5637 5639 5641 5643 5645 5648 5651 5654 5656 5658 5661 5663 5665 5667 5670 5673 5676
5784 5783 5781 5779 5777 5775 5773 5771 5769 5767 5765 5762 5760 5758 5755 5753 5750 5747 5743 5740 5736 5733 5730 5726 5721 5716 5712 5707 5702 5697 5692 5687 5682 5678 5673 5668 5664 5661 5657 5653 5650 5646 5643 5640 5638 5636 5634 5632 5630 5628 5627 5626 5625 5624 5623 5624 5625 5627 5628 5630 5633 5636 5638 5641 5644 5648 5650 5653 5656 5658 5660 5663 5667 5669
5781 5779 5778 5776 5774 5772 5769 5768 5766 5764 5762 5759 5757 5754 5752 5750 5747 5744 5740 5737 5733 5729 5725 5721 5716 5711 5706 5702 5697 5693 5688 5682 5677 5672 5668 5664 5659 5655 5652 5648 5644 5640 5637 5633 5630 5628 5626 5624 5622 5621 5619 5618 5617 5616 5616 5616 5616 5617 5618 5620 5623 5626 5629 5632 5635 5639 5642 5645 5648 5650 5653 5656 5659 5662
5778 5776 5774 5772 5770 5768 5766 5764 5763 5761 5759 5756 5754 5751 5749 5746 5743 5740 5737 5733 5729 5725 5720 5716 5711 5707 5701 5697 5692 5688 5684 5680 5674 5669 5664 5660 5656 5651 5647 5643 5640 5636 5632 5628 5625 5622 5619 5617 5615 5613 5612 5611 5610 5609 5608 5608 5608 5608 5609 5611 5613 5616 5619 5622 5625 5629 5633 5636 5639 5642 5645 5648 5651 5653
5775 5773 5771 5769 5767 5765 5763 5761 5760 5758 5756 5753 5751 5748 5745 5743 5740 5737 5733 5729 5725 5721 5716 5711 5706 5702 5697 5693 5689 5684 5680 5676 5672 5667 5662 5657 5653 5649 5644 5640 5636 5632 5628 5624 5620 5617 5614 5612 5610 5608 5606 5604 5603 5602 5601 5600 5600 5600 5600 5602 5604 5606 5610 5613 5616 5619 5624 5628 5631 5634 5637 5641 5643 5646
5772 5770 5768 5766 5764 5762 5760 5759 5757 5755 5753 5750 5748 5745 5742 5739 5736 5733 5729 5725 5721 5716 5712 5707 5702 5698 5693 5690 5686 5681 5677 5673 5669 5665 5661 5655 5650 5646 5642 5637 5633 5628 5624 5620 5616 5613 5610 5607 5605 5603 5602 5600 5599 5597 5596 5595 5593 5593 5593 5594 5595 5597 5600 5604 5607 5610 5614 5619 5623 5626 5629 5633 5636 5640
5769 5767 5765 5763 5761 5759 5758 5756 5754 5752 5750 5748 5745 5742 5739 5736 5733 5729 5725 5721 5717 5712 5707 5703 5698 5694 5690 5686 5683 5679 5675 5672 5668 5663 5658 5653 5648 5643 5638 5634 5629 5625 5621 5617 5613 5610 5607 5604 5601 5599 5597 5596 5595 5593 5591 5590 5588 5587 5586 5587 5587 5589 5591 5595 5598 5602 5605 5609 5614 5618 5621 5625 5629 5633
5766 5764 5762 5760 5758 5757 5755 5753 5751 5749 5747 5745 5742 5739 5736 5733 5729 5725 5722 5717 5713 5708 5704 5700 5695 5691 5687 5684 5680 5677 5673 5670 5666 5661 5656 5651 5646 5641 5636 5631 5627 5622 5618 5614 5610 5607 5604 5602 5599 5597 5594 5592 5590 5588 5587 5585 5583 5582 5581 5581 5581 5581 5583 5586 5589 5593 5596 5600 5605 5610 5613 5617 5621 5626
5763 5761 5759 5758 5756 5755 5753 5751 5748 5746 5744 5742 5740 5737 5733 5730 5726 5722 5718 5714 5709 5705 5701 5697 5693 5689 5685 5682 5678 5674 5671 5667 5663 5659 5654 5649 5645 5640 5635 5631 5626 5621 5617 5613 5609 5604 5601 5599 5596 5594 5591 5588 5586 5584 5582 5580 5578 5577 5576 5576 5575 5575 5576 5578 5581 5585 5588 5592 5596 5601 5605 5609 5614 5618
5760 5759 5757 5756 5754 5753 5751 5748 5746 5744 5741 5739 5736 5733 5730 5726 5723 5719 5715 5710 5706 5702 5698 5694 5690 5687 5683 5680 5676 5672 5668 5664 5660 5656 5652 5647 5643 5639 5634 5630 5625 5620 5615 5611 5607 5603 5599 5596 5593 5591 5588 5585 5582 5579 5577 5576 5574 5573 5572 5571 5571 5570 5570 5571 5573 5577 5580 5584 5588 5593 5597 5602 5606 5610
5758 5756 5755 5754 5752 5750 5748 5746 5744 5741 5739 5736 5733 5730 5726 5723 5719 5715 5711 5707 5703 5699 5695 5691 5688 5685 5681 5678 5675 5671 5667 5663 5659 5654 5650 5646 5641 5636 5632 5628 5623 5619 5614 5609 5605 5601 5598 5594 5591 5588 5584 5581 5578 5576 5574 5573 5571 5570 5569 5568 5566 5566 5565 5565 5566 5569 5573 5576 5580 5585 5589 5594 5598 5603
5755 5754 5753 5752 5750 5748 5746 5743 5741 5739 5737 5734 5730 5727 5724 5720 5716 5712 5708 5704 5700 5696 5692 5689 5686 5683 5680 5677 5673 5670 5666 5662 5658 5654 5650 5645 5641 5635 5631 5626 5622 5618 5613 5608 5604 5600 5597 5593 5589 5585 5582 5578 5575 5573 5572 5570 5569 5567 5566 5564 5563 5562 5561 5561 5561 5562 5565 5569 5573 5577 5582 5586 5591 5595
5753 5752 5751 5749 5747 5745 5743 5741 5739 5736 5734 5731 5728 5724 5721 5717 5714 5710 5705 5701 5698 5694 5690 5687 5684 5681 5678 5675 5672 5669 5665 5661 5658 5654 5650 5645 5641 5636 5631 5626 5621 5617 5612 5608 5603 5599 5595 5592 5589 5584 5580 5577 5574 5572 5570 5568 5566 5564 5562 5561 5559 5558 5556 5556 5556 5557 5559 5562 5565 5570 5574 5579 5583 5588
5751 5749 5748 5746 5744 5743 5741 5738 5736 5733 5730 5727 5724 5721 5718 5714 5711 5707 5703 5699 5695 5692 5688 5686 5683 5680 5677 5674 5671 5668 5664 5661 5657 5653 5649 5645 5640 5636 5632 5627 5623 5618 5613 5608 5604 5599 5594 5590 5587 5583 5579 5575 5573 5570 5568 5566 5564 5561 5559 5557 5555 5554 5552 5551 5550 5551 5553 5555 5559 5563 5567 5572 5577 5581
5748 5747 5745 5743 5742 5740 5738 5736 5733 5730 5727 5724 5721 5718 5715 5711 5707 5703 5700 5696 5693 5690 5687 5684 5682 5679 5676 5673 5670 5667 5664 5660 5657 5653 5649 5646 5642 5638 5633 5629 5625 5620 5615 5610 5605 5600 5595 5590 5586 5582 5579 5575 5572 5569 5567 5564 5561 5559 5557 5554 5552 5549 5546 5544 5544 5545 5547 5549 5552 5556 5561 5566 5570 5575
5745 5744 5742 5741 5739 5737 5735 5733 5730 5727 5725 5722 5719 5716 5712 5709 5705 5701 5697 5694 5691 5688 5686 5683 5680 5678 5675 5672 5669 5666 5663 5660 5656 5653 5650 5646 5643 5639 5635 5630 5626 5621 5617 5612 5607 5601 5598 5593 5588 5583 5579 5575 5572 5569 5566 5563 5560 5557 5555 5552 5549 5545 5541 5538 5537 5538 5541 5544 5547 5550 5555 5560 5564 5569
5742 5741 5740 5738 5736 5734 5732 5730 5728 5725 5722 5719 5716 5713 5710 5706 5703 5699 5695 5692 5689 5686 5684 5682 5679 5677 5674 5672 5669 5666 5662 5659 5656 5653 5649 5646 5642 5639 5635 5631 5626 5622 5618 5613 5608 5603 5599 5595 5591 5586 5581 5577 5573 5569 5565 5562 5559 5556 5553 5549 5546 5542 5538 5534 5532 5533 5536 5539 5542 5546 5550 5554 5559 5563
5740 5738 5737 5735 5733 5731 5729 5727 5724 5722 5719 5716 5713 5710 5707 5703 5700 5696 5693 5690 5687 5685 5683 5681 5678 5676 5673 5671 5668 5665 5662 5659 5656 5652 5649 5646 5642 5638 5634 5630 5626 5622 5618 5614 5609 5604 5600 5595 5590 5586 5581 5577 5573 5570 5566 5562 5559 5556 5552 5548 5545 5540 5535 5532 5531 5530 5532 5535 5539 5542 5545 5549 5554 5558
5737 5736 5734 5732 5730 5728 5726 5724 5721 5719 5716 5713 5711 5707 5704 5700 5696 5693 5691 5688 5685 5683 5681 5679 5677 5674 5672 5669 5666 5663 5660 5658 5655 5652 5649 5646 5642 5638 5634 5630 5626 5622 5618 5614 5610 5606 5602 5597 5591 5586 5582 5578 5574 5570 5567 5563 5559 5555 5552 5549 5545 5540 5535 5533 5532 5530 5530 5532 5535 5538 5542 5546 5551 5554
5734 5733 5731 5729 5727 5725 5723 5721 5718 5716 5713 5710 5708 5704 5701 5697 5694 5691 5689 5686 5684 5682 5680 5677 5675 5672 5670 5667 5664 5662 5659 5656 5654 5651 5648 5645 5642 5638 5635 5631 5627 5623 5619 5615 5610 5607 5603 5599 5595 5590 5586 5581 5577 5572 5568 5564 5559 5556 5552 5549 5546 5543 5538 5535 5533 5531 5530 5531 5533 5536 5540 5544 5547 5551
5731 5730 5728 5726 5724 5722 5720 5718 5715 5713 5710 5708 5705 5701 5698 5695 5692 5689 5687 5684 5682 5680 5678 5675 5673 5670 5668 5665 5663 5660 5658 5655 5652 5649 5647 5644 5641 5637 5634 5630 5627 5623 5619 5615 5611 5607 5603 5599 5596 5592 5588 5584 5580 5575 5571 5566 5561 5557 5554 5550 5547 5545 5542 5538 5535 5533 5532 5532 5533 5536 5539 5541 5544 5548
5728 5726 5725 5723 5721 5719 5717 5715 5712 5710 5707 5705 5702 5699 5695 5692 5690 5687 5685 5682 5680 5678 5676 5674 5671 5669 5666 5664 5661 5659 5656 5653 5651 5648 5645 5642 5639 5636 5633 5630 5626 5623 5619 5615 5611 5607 5604 5600 5596 5592 5589 5585 5581 5577 5573 5568 5563 5559 5556 5552 5549 5546 5544 5541 5538 5536 5535 5535 5535 5536 5538 5540 5543 5546
5725 5723 5721 5719 5718 5716 5714 5712 5709 5707 5704 5702 5699 5696 5693 5690 5688 5685 5683 5681 5678 5676 5674 5672 5669 5667 5665 5662 5660 5658 5655 5652 5649 5646 5643 5640 5637 5634 5631 5628 5625 5622 5618 5615 5611 5608 5604 5600 5597 5593 5589 5586 5582 5578 5574 5570 5566 5562 5558 5554 5552 5549 5546 5543 5541 5539 5538 5537 5537 5538 5538 5539 5541 5544
5722 5720 5718 5716 5715 5713 5711 5709 5706 5704 5702 5699 5696 5693 5690 5688 5685 5683 5681 5678 5676 5674 5672 5670 5667 5665 5663 5661 5658 5656 5653 5651 5648 5645 5642 5639 5636 5633 5630 5626 5623 5620 5617 5614 5611 5608 5604 5601 5597 5594 5590 5586 5583 5579 5575 5572 5568 5564 5561 5557 5554 5551 5548 5546 5544 5542 5541 5540 5540 5540 5540 5540 5541 5543
5718 5717 5715 5713 5712 5710 5708 5706 5703 5701 5699 5696 5694 5691 5688 5685 5683 5681 5678 5676 5674 5672 5670 5668 5665 5663 5661 5659 5657 5654 5652 5649 5646 5644 5641 5639 5636 5633 5629 5626 5622 5619 5616 5613 5610 5607 5604 5601 5597 5594 5591 5587 5584 5580 5577 5574 5570 5567 5563 5560 5557 5553 5551 5548 5546 5544 5543 5542 5542 5541 5541 5542 5543 5544
5715 5714 5712 5710 5708 5707 5705 5702 5700 5698 5696 5693 5691 5688 5685 5683 5680 5678 5676 5674 5672 5670 5668 5666 5663 5661 5659 5657 5654 5652 5650 5647 5644 5642 5639 5637 5634 5631 5629 5625 5622 5618 5615 5612 5609 5606 5603 5600 5597 5594 5591 5588 5584 5581 5578 5575 5572 5569 5565 5562 5559 5556 5553 5550 5548 5546 5545 5544 5543 5542 5542 5543 5543 5544
5712 5710 5709 5707 5705 5703 5701 5699 5697 5695 5693 5690 5688 5685 5682 5680 5678 5676 5674 5672 5670 5668 5666 5664 5661 5659 5657 5655 5652 5650 5647 5645 5642 5640 5637 5635 5632 5629 5627 5624 5621 5618 5615 5611 5608 5605 5602 5599 5596 5593 5591 5588 5585 5582 5579 5576 5573 5570 5567 5564 5561 5558 5555 5553 5550 5548 5546 5545 5544 5543 5543 5543 5543 5543
5708 5707 5705 5704 5702 5700 5698 5696 5694 5692 5690 5687 5685 5682 5680 5677 5675 5674 5672 5670 5668 5666 5664 5661 5659 5657 5655 5653 5650 5648 5645 5643 5640 5638 5635 5633 5630 5627 5625 5622 5619 5616 5613 5610 5607 5604 5601 5598 5595 5592 5590 5587 5585 5582 5579 5577 5574 5571 5568 5566 5563 5560 5558 5555 5553 5550 5548 5546 5545 5544 5543 5543 5543 5543
5705 5703 5702 5700 5699 5697 5695 5693 5691 5689 5687 5685 5682 5680 5677 5675 5673 5671 5670 5668 5666 5664 5661 5659 5657 5655 5652 5650 5648 5646 5643 5641 5638 5636 5633 5631 5628 5625 5622 5620 5617 5614 5611 5608 5606 5603 5600 5597 5594 5591 5588 5586 5584 5581 5579 5576 5574 5571 5568 5566 5563 5561 5559 5557 5555 5552 5550 5548 5546 5544 5543 5543 5542 5542
5702 5700 5699 5697 5695 5694 5692 5690 5688 5686 5684 5682 5679 5677 5674 5672 5670 5669 5667 5665 5663 5661 5659 5657 5654 5652 5650 5648 5646 5644 5641 5639 5636 5634 5631 5629 5626 5623 5620 5617 5614 5612 5609 5606 5604 5601 5598 5596 5593 5590 5588 5585 5582 5580 5578 5575 5573 5571 5568 5566 5563 5561 5559 5557 5555 5553 5551 5549 5547 5545 5544 5542 5542 5541
5698 5697 5695 5694 5692 5690 5688 5686 5685 5683 5681 5679 5676 5674 5672 5670 5668 5666 5664 5662 5660 5658 5656 5654 5652 5650 5648 5646 5643 5641 5639 5637 5634 5632 5629 5626 5623 5620 5617 5614 5612 5609 5606 5604 5601 5598 5596 5593 5591 5588 5586 5584 5581 5579 5576 5574 5572 5569 5567 5565 5563 5561 5559 5557 5555 5553 5551 5550 5548 5546 5544 5543 5541 5540
5695 5694 5692 5690 5689 5687 5685 5683 5681 5679 5678 5676 5673 5671 5669 5667 5665 5663 5661 5660 5658 5656 5653 5651 5649 5647 5645 5643 5641 5639 5636 5634 5631 5629 5626 5624 5621 5618 5615 5612 5609 5606 5603 5600 5598 5595 5593 5590 5588 5585 5583 5581 5579 5577 5574 5572 5570 5568 5566 5564 5562 5560 5558 5556 5554 5553 5551 5549 5547 5546 5545 5543 5541 5540
5692 5690 5689 5687 5685 5684 5682 5680 5678 5676 5674 5672 5670 5668 5666 5664 5662 5660 5658 5657 5655 5653 5651 5649 5647 5645 5642 5640 5638 5636 5633 5631 5628 5626 5623 5620 5618 5615 5612 5609 5606 5603 5600 5597 5595 5592 5590 5587 5585 5582 5580 5577 5576 5574 5572 5570 5568 5566 5564 5562 5560 5558 5557 5555 5553 5551 5550 5548 5546 5545 5543 5542 5541 5539
5688 5687 5685 5684 5682 5680 5678 5676 5675 5673 5671 5669 5667 5665 5663 5661 5659 5657 5655 5653 5652 5649 5647 5646 5644 5642 5640 5637 5635 5633 5630 5628 5625 5623 5620 5617 5614 5612 5609 5606 5604 5601 5598 5595 5592 5589 5587 5584 5581 5579 5577 5574 5572 5570 5568 5566 5564 5562 5561 5559 5558 5556 5554 5553 5551 5549 5548 5546 5545 5543 5541 5540 5539 5538
5685 5683 5682 5680 5678 5677 5675 5673 5671 5669 5668 5666 5664 5662 5660 5657 5655 5654 5652 5650 5648 5646 5644 5642 5640 5638 5636 5634 5632 5629 5627 5624 5622 5619 5617 5614 5611 5608 5605 5603 5600 5597 5595 5592 5589 5586 5583 5581 5578 5576 5573 5571 5569 5567 5565 5563 5561 5559 5557 5556 5555 5553 5551 5549 5548 5547 5545 5544 5542 5541 5539 5538 5536 5535
5681 5679 5678 5676 5675 5673 5671 5669 5668 5666 5664 5662 5660 5658 5656 5654 5652 5650 5648 5647 5645 5643 5641 5639 5637 5635 5633 5630 5628 5626 5624 5621 5618 5616 5613 5610 5607 5605 5602 5599 5596 5593 5591 5588 5586 5583 5580 5577 5575 5572 5570 5567 5566 5564 5562 5560 5559 5556 5554 5552 5550 5549 5548 5546 5544 5543 5542 5540 5539 5537 5536 5535 5533 5532
5677 5675 5674 5672 5671 5669 5667 5666 5664 5662 5660 5659 5657 5655 5653 5651 5649 5647 5645 5643 5641 5639 5637 5635 5633 5631 5629 5627 5624 5622 5620 5617 5615 5612 5609 5606 5603 5600 5598 5595 5592 5589 5586 5584 5582 5579 5576 5573 5571 5569 5567 5564 5561 5560 5558 5556 5554 5553 5551 5548 5546 5544 5543 5542 5541 5539 5537 5536 5535 5533 5532 5531 5529 5528
5672 5671 5670 5668 5667 5665 5664 5662 5660 5658 5656 5655 5653 5651 5649 5647 5645 5643 5641 5639 5637 5635 5633 5631 5629 5627 5625 5623 5620 5618 5615 5613 5610 5607 5605 5602 5599 5596 5593 5591 5588 5585 5582 5580 5577 5575 5572 5569 5567 5564 5562 5560 5557 5555 5553 5552 5549 5547 5546 5544 5542 5539 5538 5537 5536 5535 5533 5531 5530 5528 5527 5526 5524 5523
5668 5666 5665 5664 5663 5661 5660 5658 5656 5654 5653 5651 5649 5647 5645 5643 5641 5639 5637 5635 5633 5631 5629 5627 5625 5623 5621 5618 5616 5614 5611 5608 5605 5602 5600 5597 5594 5591 5588 5586 5583 5581 5578 5575 5573 5570 5568 5565 5562 5559 5557 5555 5552 5549 5548 5546 5545 5543 5541 5539 5536 5534 5532 5531 5530 5529 5528 5527 5526 5524 5522 5521 5519 5518
5663 5662 5661 5660 5658 5657 5656 5654 5652 5650 5649 5647 5645 5643 5641 5639 5637 5635 5633 5631 5629 5627 5625 5623 5621 5619 5616 5614 5612 5609 5606 5603 5600 5598 5595 5592 5589 5586 5583 5580 5577 5575 5572 5570 5567 5565 5562 5560 5557 5555 5552 5549 5547 5544 5542 5540 5538 5536 5535 5533 5531 5528 5527 5525 5524 5522 5521 5520 5519 5518 5517 5515 5514 5513
Wind_Speed
32 32 32 32 32 32 31 31 32 32 33 34 34 35 35 35 34 33 32 32 33 33 34 35 35 37 38 40 41 43 44 46 47 47 48 48 48 49 48 48 48 48 48 49 50 50 51 51 52 53 53 52 50 49 49 49 48 48 46 45 43 42 44 44 44 43 43 41 40 40 40 38 37 37
32 33 33 32 31 30 30 31 32 33 34 34 34 34 33 32 32 31 32 32 33 34 36 37 38 39 41 43 45 46 47 48 49 49 49 49 49 49 48 48 48 48 48 49 50 50 51 52 52 53 53 54 53 51 50 50 50 49 49 48 46 43 44 46 46 46 45 43 42 42 41 39 39 39
32 31 30 29 29 29 30 31 32 33 34 33 33 32 31 31 31 32 33 34 35 36 38 40 41 43 45 47 49 51 52 52 52 52 52 51 51 50 49 49 49 49 49 49 50 51 52 52 53 53 54 54 54 54 53 52 52 51 51 50 49 47 45 46 47 47 46 45 44 43 43 41 41 40
29 28 27 27 28 29 30 32 33 33 33 32 31 31 30 31 32 33 34 36 37 39 40 42 45 47 49 51 52 54 55 55 55 54 54 54 53 52 52 51 50 49 49 49 49 50 51 52 53 54 55 55 55 55 55 54 54 53 53 52 52 50 48 46 47 49 48 46 46 46 45 44 42 41
27 26 27 28 29 30 31 32 32 31 31 30 29 30 30 31 33 34 36 38 40 42 43 45 48 50 52 54 56 56 57 57 56 56 56 55 55 54 53 52 50 49 47 46 46 45 46 47 49 51 53 54 55 56 56 56 55 55 55 54 53 53 52 49 48 49 49 48 48 48 47 45 43 42
27 28 29 30 30 31 31 31 30 29 29 28 28 29 30 32 34 36 38 40 42 44 46 48 50 52 55 57 58 58 57 57 56 56 55 55 54 53 52 50 48 47 45 44 42 41 41 42 43 45 47 50 52 54 55 56 56 56 56 56 55 54 54 52 50 50 50 50 50 50 49 47 46 44
28 30 30 30 30 30 30 29 28 28 27 28 29 30 32 34 36 38 40 42 43 45 48 50 52 55 56 57 57 57 56 55 55 54 53 51 51 50 49 48 47 46 45 44 42 41 40 40 40 41 43 44 47 49 51 53 54 55 55 56 56 56 55 55 53 51 51 51 51 51 51 50 48 47
29 30 30 30 30 29 28 27 27 27 27 28 30 32 34 36 38 40 41 43 45 47 50 52 54 56 56 56 55 54 52 51 50 50 49 49 49 49 48 48 47 46 45 44 43 42 40 39 39 39 40 41 43 45 47 49 50 52 53 54 55 56 56 56 56 54 53 53 52 52 52 51 49 49
28 29 29 29 28 27 26 26 26 27 28 29 31 33 35 37 39 40 42 44 46 49 51 53 55 55 55 54 52 51 49 47 46 47 47 47 47 47 47 46 45 43 42 41 40 40 40 39 38 37 37 37 39 40 43 45 47 49 51 52 53 54 55 56 57 56 54 54 54 54 53 53 52 50
27 28 28 27 26 25 26 26 26 27 29 31 33 35 37 38 40 41 43 45 48 50 52 54 54 53 51 49 48 46 45 44 43 44 45 45 44 44 43 42 40 39 38 37 37 38 38 37 35 33 31 31 33 34 37 39 43 46 48 50 51 51 52 54 56 57 56 55 55 55 55 54 54 52
26 27 26 25 25 25 26 26 26 28 30 32 34 36 37 38 40 42 44 47 49 51 52 52 51 49 47 45 43 43 42 42 41 41 41 41 40 39 39 38 37 36 35 35 35 36 35 35 32 29 26 24 26 29 31 34 37 40 43 46 49 50 50 51 54 57 57 56 56 57 57 56 55 54
26 25 24 24 24 25 26 26 27 29 31 33 35 36 37 39 41 43 45 48 50 51 50 49 46 44 42 41 40 40 39 39 39 39 38 38 37 37 37 37 36 35 35 35 34 33 31 30 30 30 27 24 23 25 28 31 33 35 37 40 44 48 49 49 50 54 56 57 56 57 58 58 56 55
24 24 23 24 24 25 26 27 28 30 32 33 35 36 38 40 42 44 46 48 49 49 47 44 42 40 38 38 38 38 37 37 37 37 37 37 37 37 37 37 37 36 36 35 34 31 28 27 28 29 29 28 27 26 28 30 32 34 34 34 37 43 47 48 49 50 54 56 56 57 59 59 57 56
23 23 23 24 24 24 26 27 29 31 32 34 35 36 38 40 42 45 47 48 47 46 43 41 38 36 36 36 37 36 36 36 36 36 36 37 37 36 36 35 35 36 36 35 33 32 29 26 25 26 27 28 28 27 26 27 29 31 32 31 32 35 41 45 47 48 51 54 55 57 58 60 59 57
23 23 23 23 23 24 26 28 29 31 33 34 35 37 39 41 43 45 46 46 45 43 40 37 35 34 34 35 34 34 34 35 36 36 38 39 38 37 36 35 33 34 35 35 33 31 30 28 25 25 26 28 27 25 23 22 23 25 27 28 28 30 34 39 44 46 49 51 53 55 57 59 60 58
22 22 22 22 23 25 26 28 30 32 33 34 36 37 39 41 43 44 44 43 42 40 37 35 33 33 33 33 31 31 32 34 35 37 38 39 40 40 39 37 35 34 34 33 31 29 29 29 29 29 29 29 26 22 20 19 20 22 24 25 26 27 29 32 37 42 47 50 51 53 56 58 60 59
22 21 21 22 24 25 27 29 31 32 33 34 36 38 39 41 42 43 43 42 40 37 35 33 32 32 32 30 29 30 32 33 33 35 36 37 39 40 41 40 39 37 35 34 31 28 27 27 28 29 29 27 23 20 19 19 21 22 23 24 25 26 27 29 32 36 43 48 50 51 53 56 59 59
20 20 21 23 25 26 28 30 31 32 34 35 36 38 39 41 42 42 41 40 38 35 32 32 31 31 30 28 28 30 31 31 32 33 34 35 37 39 40 41 42 41 40 38 36 33 28 25 27 29 27 23 21 20 20 20 21 22 23 23 24 25 27 28 30 32 37 44 49 50 51 54 58 58
20 21 22 24 25 27 29 31 32 33 34 35 36 38 39 40 41 40 39 37 35 32 31 30 30 29 27 27 28 29 29 30 31 32 33 34 36 37 38 40 41 41 42 41 40 38 35 30 30 33 31 26 22 20 20 20 20 21 22 22 23 25 27 28 30 31 34 39 45 49 50 52 55 57
20 22 23 24 26 28 30 31 32 33 34 35 36 37 38 39 39 38 37 35 32 30 29 29 29 27 26 25 27 27 27 28 29 30 31 33 34 36 37 38 39 40 41 42 42 42 41 39 36 35 36 34 28 22 21 21 20 18 17 18 21 24 26 27 30 32 33 35 41 45 48 49 52 56
21 22 24 25 27 29 30 31 32 32 33 34 35 36 38 38 38 37 35 33 30 29 28 28 27 25 24 24 25 25 26 27 28 29 30 31 32 34 36 37 38 39 40 41 41 42 43 42 41 38 38 36 32 26 23 24 23 19 16 17 21 23 22 21 25 30 33 34 37 41 45 47 49 53
21 23 24 26 28 30 31 31 32 32 33 34 35 37 38 38 37 36 34 31 29 28 28 27 26 24 23 23 24 24 25 26 27 28 29 31 32 34 35 37 38 39 39 39 41 41 42 42 42 41 39 38 34 29 25 25 24 21 20 21 23 25 22 16 16 24 30 32 34 38 41 44 47 50
22 23 25 27 29 30 31 31 32 32 33 34 35 37 37 37 36 35 32 29 28 27 26 26 25 23 22 23 24 24 24 24 25 27 29 31 32 34 36 37 38 39 39 40 40 40 41 42 42 42 42 41 38 32 28 25 24 22 22 23 26 28 22 12 9 14 24 29 32 35 37 40 44 48
23 24 26 27 29 30 30 31 32 32 33 34 35 36 36 35 34 32 29 27 26 26 26 25 24 22 22 23 24 24 24 25 25 26 27 29 31 33 35 36 38 39 40 40 40 40 40 41 41 41 42 42 41 37 33 29 25 23 22 21 25 30 26 14 10 9 15 24 28 32 35 37 40 45
23 25 26 28 29 30 30 31 31 31 32 34 34 34 34 33 31 29 27 26 25 25 25 25 24 23 22 23 24 25 25 26 26 26 27 28 30 32 33 35 36 38 39 39 40 40 39 39 39 39 39 40 40 39 37 34 29 26 25 23 23 28 28 19 14 12 8 16 22 26 29 32 36 41
24 25 27 28 29 30 30 30 30 31 32 33 33 33 32 31 30 28 26 25 25 25 25 25 24 23 23 24 24 25 26 27 28 28 29 29 30 31 33 34 36 37 38 38 39 39 39 39 39 38 38 38 38 38 38 37 35 31 29 27 24 24 26 23 18 13 7 7 14 18 21 26 32 37
25 26 27 28 29 29 29 30 29 30 31 32 32 31 31 29 28 26 25 25 25 25 25 24 24 24 24 24 25 26 27 28 28 30 30 31 32 32 33 34 35 36 37 38 38 38 38 39 39 38 38 37 37 37 37 37 38 36 33 32 29 24 22 22 20 15 10 4 5 12 18 23 28 33
25 26 27 28 29 29 29 29 29 29 31 31 31 30 29 28 27 25 24 24 24 25 25 25 24 24 24 25 25 26 27 28 29 30 31 32 33 34 34 34 35 36 37 37 38 38 38 38 38 38 38 37 37 37 37 37 37 37 36 34 33 28 22 20 20 17 11 6 4 4 12 20 24 29
25 26 27 28 28 28 28 28 28 29 30 30 30 29 28 27 26 25 25 24 24 25 25 25 25 25 25 26 26 27 27 28 29 30 31 32 33 34 35 35 36 36 36 37 37 38 38 38 37 37 37 37 37 36 36 36 35 36 36 35 34 32 27 21 17 16 12 7 6 4 6 14 19 24
25 26 27 27 28 28 28 27 28 29 29 29 29 28 27 26 26 25 25 25 25 25 26 26 26 26 27 27 27 28 28 29 30 30 31 31 32 33 34 35 36 36 36 37 37 37 38 38 38 37 36 36 36 35 35 35 34 34 34 34 33 33 32 26 19 15 12 8 5 3 4 8 13 18
25 26 27 27 27 27 27 27 27 28 29 29 28 27 26 26 25 25 25 25 25 25 26 26 27 27 28 28 29 29 29 30 31 31 32 32 33 33 33 34 35 36 36 37 37 37 37 37 37 37 36 35 35 35 34 34 34 33 32 32 32 32 32 31 28 21 14 10 7 5 3 5 9 14
24 25 26 27 27 27 27 27 27 27 28 28 27 26 25 25 25 25 25 25 25 25 26 26 27 28 28 29 30 30 31 31 31 32 33 33 34 34 35 34 35 35 35 36 36 36 37 37 36 36 36 35 34 33 33 33 32 32 31 30 31 30 30 29 30 27 21 14 10 8 5 5 7 11
24 25 26 27 27 27 27 26 26 27 27 27 27 26 25 24 24 25 25 25 25 26 26 26 27 28 29 29 30 31 31 31 31 32 33 33 34 35 35 35 35 35 35 35 35 35 35 36 36 36 35 35 34 33 32 32 31 31 31 29 28 28 28 27 27 27 25 20 14 10 8 8 9 10
24 25 26 27 27 27 27 26 26 26 27 27 27 25 24 24 24 25 25 25 26 26 26 27 27 28 29 29 30 30 31 31 31 31 32 33 34 34 34 34 35 35 35 35 35 35 35 35 35 35 35 34 34 33 33 32 31 30 30 30 28 27 26 26 25 24 25 23 20 15 11 9 10 11
25 25 26 27 27 27 27 26 26 26 27 27 26 25 24 24 24 25 25 25 26 26 27 27 28 28 29 29 30 30 30 31 31 32 32 33 34 34 34 35 34 34 34 34 34 34 34 34 34 34 34 33 33 33 32 32 31 30 29 28 28 28 26 25 24 23 22 22 22 20 17 14 11 11
25 26 26 27 27 27 26 26 25 26 26 27 26 25 24 24 24 25 25 26 26 27 27 28 28 28 29 29 30 30 31 31 32 32 33 33 34 34 34 35 35 35 35 34 34 34 34 34 34 33 33 33 33 32 31 31 31 30 29 28 27 26 26 25 25 24 22 21 20 19 19 18 17 15
26 26 27 27 27 27 26 26 25 26 26 27 27 25 24 24 24 25 26 26 27 28 28 28 28 29 29 30 30 31 32 33 33 34 34 35 35 35 35 35 36 36 36 35 35 34 34 34 34 34 33 32 32 32 31 31 30 29 29 28 27 27 26 26 25 24 23 22 21 19 18 17 17 17
27 27 27 28 28 27 26 25 25 26 26 27 27 26 25 25 25 26 26 27 28 28 29 29 29 29 30 31 32 33 33 34 34 35 36 36 36 36 36 36 37 37 38 37 37 36 35 35 34 34 34 33 33 32 31 31 30 29 29 29 29 28 27 27 26 25 24 23 23 21 20 18 17 16
28 28 28 28 28 28 27 26 25 26 27 27 27 26 26 25 26 26 27 27 28 29 30 30 30 30 31 32 33 34 34 35 36 36 37 37 38 38 37 38 38 38 39 39 39 38 37 36 35 35 34 34 34 33 33 32 32 31 30 30 29 29 28 28 27 27 26 25 24 23 22 21 20 18
28 28 28 29 29 28 27 26 25 26 27 27 27 27 26 26 27 27 27 28 29 30 30 31 31 32 32 33 34 34 35 36 37 38 38 38 38 39 39 39 40 40 40 40 40 40 39 38 37 36 36 35 35 34 34 33 33 33 33 32 31 31 30 30 29 28 27 28 27 26 25 24 23 22
29 29 29 30 29 28 27 26 26 26 27 28 28 27 27 27 27 28 28 29 30 30 31 31 32 33 34 34 35 35 36 37 38 39 40 40 40 40 41 41 42 42 42 42 42 41 40 39 38 37 37 36 36 34 34 33 32 32 33 34 33 32 31 31 31 30 29 28 28 28 28 27 26 25
30 31 31 30 29 28 27 27 27 27 28 28 29 28 28 28 28 29 29 30 31 31 32 33 33 34 35 35 36 37 38 39 40 40 41 41 41 42 42 43 44 44 45 44 44 43 41 40 39 38 37 37 37 36 35 35 34 33 33 34 34 34 33 32 32 32 32 31 30 30 29 29 29 28
32 32 31 30 29 28 28 27 27 28 29 29 30 29 29 29 29 30 31 31 32 33 33 34 35 35 36 37 38 39 40 41 42 42 42 42 43 43 44 44 45 46 47 47 46 44 43 42 41 41 40 39 39 39 37 37 36 36 36 36 36 37 36 35 33 33 33 33 33 33 32 32 32 32
33 33 31 30 29 29 28 28 28 29 30 30 30 30 30 30 30 31 32 33 34 34 35 35 36 37 38 39 40 41 42 43 43 44 44 44 45 45 46 46 47 48 48 48 47 46 45 44 43 43 42 42 41 41 41 40 39 39 39 39 39 40 40 40 38 37 36 35 35 34 35 34 34 34
34 33 31 30 29 29 29 29 29 30 31 31 31 31 31 31 32 32 33 34 35 36 36 37 38 39 40 41 42 43 44 45 45 45 46 46 47 48 48 49 50 50 51 50 49 47 46 45 45 44 44 44 44 44 45 44 43 43 42 41 41 42 42 41 41 41 40 40 39 37 36 37 37 36
Wind_Direction
293 294 296 297 298 301 304 306 307 307 307 307 307 307 307 307 308 309 311 312 313 313 313 313 314 313 312 311 311 310 309 308 307 305 304 302 301 299 297 295 293 291 288 286 284 282 280 279 277 276 275 273 270 268 267 267 266 264 262 260 255 252 251 250 249 249 249 247 247 248 249 248 249 250
296 296 297 298 300 303 305 305 306 307 307 307 308 308 309 310 312 314 315 315 315 316 316 316 316 315 314 314 314 313 312 311 309 308 307 305 303 301 298 296 294 291 289 286 284 281 279 277 276 274 273 272 270 267 265 264 263 262 261 260 257 252 250 249 247 247 247 247 246 247 248 247 246 247
299 299 300 301 302 303 304 305 306 307 308 309 310 312 313 315 317 318 317 317 317 318 318 318 319 319 318 318 317 316 315 314 313 311 310 308 306 304 301 299 296 293 290 287 284 281 279 277 275 273 271 270 269 267 264 262 261 260 259 258 257 254 250 248 247 246 245 245 245 245 245 245 244 245
303 302 302 303 303 304 305 306 307 308 310 313 314 315 317 318 319 318 318 319 319 319 319 320 321 321 321 320 319 318 317 316 315 314 313 311 309 307 305 303 300 297 293 289 286 282 279 277 274 272 270 268 267 266 264 261 259 258 257 256 255 254 251 248 246 246 244 243 243 243 242 242 242 242
306 305 305 305 306 306 306 307 309 311 314 315 316 318 319 319 320 320 321 320 320 321 321 321 321 321 321 321 321 321 320 319 318 317 315 313 312 310 308 307 304 301 298 294 290 286 283 279 276 274 271 269 267 265 263 261 259 257 256 255 254 253 251 248 245 245 244 242 241 242 241 241 240 240
303 305 307 307 307 307 307 309 312 315 316 316 317 319 320 321 322 322 322 322 323 323 323 323 322 322 322 323 323 323 322 321 320 319 317 316 314 313 311 310 308 306 304 300 296 291 287 284 280 277 274 272 269 267 264 262 259 256 254 253 252 251 250 248 245 243 243 242 240 240 240 240 240 240
302 305 307 306 307 308 310 313 315 316 316 318 320 321 322 323 323 323 323 324 324 324 324 324 324 325 325 325 324 324 323 322 321 320 318 318 317 316 315 314 313 312 309 306 303 298 294 290 286 282 278 275 272 270 267 265 262 258 255 252 251 250 249 248 246 242 241 241 239 239 239 238 238 239
303 304 305 306 308 310 312 315 316 317 318 320 322 323 323 324 324 324 324 324 324 324 325 325 326 326 326 326 326 325 324 323 322 321 320 320 320 319 318 317 316 314 312 310 307 304 300 296 292 287 283 278 275 272 270 267 265 262 258 254 251 248 247 246 246 242 240 239 238 238 238 238 237 237
303 304 306 308 310 312 314 316 317 319 320 322 323 324 325 325 324 324 324 324 325 325 326 327 327 327 327 327 326 325 324 323 323 324 323 323 322 321 319 319 317 316 313 310 308 306 303 300 296 292 288 283 279 275 271 268 266 263 261 257 253 249 246 244 244 243 239 237 237 237 236 236 236 236
304 306 307 309 311 314 316 317 318 319 321 323 325 325 325 324 324 324 325 326 326 327 328 328 328 328 328 327 326 325 326 326 327 326 325 323 323 322 322 321 320 318 315 313 311 308 307 305 302 297 292 288 284 280 276 272 268 265 262 259 256 252 248 244 242 243 240 236 235 235 235 235 234 235
306 308 309 311 313 315 316 317 318 320 323 325 325 324 323 323 325 326 326 327 328 329 329 329 329 329 328 327 327 328 329 329 328 327 325 325 326 326 326 326 325 323 321 318 316 313 311 310 309 306 300 293 287 283 280 278 275 270 265 261 257 254 250 245 241 241 240 236 233 233 234 234 233 233
308 309 311 313 315 316 316 317 320 323 324 324 324 323 323 324 326 327 328 329 330 330 330 330 329 329 328 328 329 330 330 329 327 328 329 332 333 334 334 333 332 329 326 324 322 319 315 312 310 309 306 301 293 285 281 278 276 275 272 265 260 255 251 247 242 240 239 237 233 232 232 233 232 231
308 310 312 314 315 315 316 319 322 323 323 323 323 323 324 326 327 328 330 331 331 331 331 330 330 329 330 331 331 330 330 330 331 334 337 341 342 342 342 341 338 334 332 332 330 326 321 314 308 305 304 302 299 293 286 279 274 274 274 270 264 258 253 248 243 239 238 237 234 230 230 231 231 230
309 311 313 313 313 315 318 321 322 322 322 322 322 323 325 327 328 330 331 332 332 332 331 331 331 331 332 332 332 332 333 335 338 341 344 347 348 348 348 346 342 338 336 336 334 331 327 320 310 304 302 303 303 299 291 283 276 274 275 274 270 263 256 250 245 240 237 236 234 231 229 230 230 229
309 310 310 311 313 317 319 321 321 321 321 321 323 324 327 328 330 332 333 333 333 333 332 333 334 334 334 333 334 335 337 341 344 346 349 351 351 351 352 351 348 345 341 339 338 335 332 328 322 317 315 313 311 305 296 287 281 279 278 278 275 270 263 254 247 241 236 235 234 231 228 228 229 229
307 308 309 311 315 318 320 321 321 321 320 321 323 326 328 330 332 333 334 334 334 334 335 335 336 336 335 335 336 338 342 346 350 352 353 354 354 355 356 356 356 355 351 347 343 337 336 335 331 326 324 321 316 310 302 293 288 285 284 282 279 275 270 262 252 243 237 234 233 232 229 227 228 228
305 306 309 313 317 319 320 321 320 320 320 322 325 327 330 332 333 334 334 335 336 336 337 338 337 336 335 336 338 341 346 350 352 355 356 356 357 359 0 1 2 2 2 360 353 346 343 342 338 334 331 327 322 316 311 303 297 293 289 286 284 279 273 267 258 248 239 234 232 231 229 227 227 227
304 307 311 315 318 320 320 320 319 320 321 324 326 329 331 333 334 335 336 337 337 338 339 339 338 336 336 338 341 344 349 351 353 356 357 358 360 2 3 5 6 6 6 7 4 359 354 350 351 351 346 338 330 324 319 313 305 299 293 289 287 284 277 270 262 253 243 235 232 231 229 226 226 227
304 308 313 316 319 319 319 319 319 321 323 325 328 331 333 334 335 336 337 338 339 341 341 339 337 336 336 339 343 347 350 352 354 356 358 359 1 2 4 6 7 8 8 8 9 8 4 359 1 3 360 353 346 336 329 321 312 307 304 298 293 289 283 273 262 253 245 238 233 230 228 226 225 225
305 310 314 317 318 318 318 318 320 322 324 327 330 333 334 335 337 338 339 340 341 342 341 338 337 336 336 339 344 348 350 352 355 358 359 1 2 3 4 6 7 8 10 9 10 12 11 7 5 5 5 2 357 348 340 335 329 323 318 311 307 303 293 277 260 249 243 238 234 231 228 226 224 224
306 311 314 315 316 317 317 319 320 322 325 328 331 333 334 336 338 339 340 341 342 342 340 338 336 335 336 340 344 347 349 351 354 356 358 1 2 2 4 5 6 8 9 10 11 13 13 12 9 7 6 4 360 352 345 343 343 341 330 320 319 318 308 286 261 246 238 235 233 231 228 225 223 223
307 311 313 314 315 316 317 319 320 323 326 329 331 333 334 336 339 340 341 342 343 342 339 336 335 333 334 338 341 345 349 351 352 353 356 358 360 1 2 3 4 6 7 8 11 12 12 13 13 11 9 7 3 356 349 347 348 348 340 331 331 331 323 302 268 246 236 233 232 230 227 224 222 222
307 310 311 312 314 316 318 319 321 324 327 330 332 333 335 338 340 340 342 343 342 340 337 334 333 332 332 335 339 343 347 349 350 351 353 356 357 358 0 1 2 3 5 6 9 10 10 10 12 12 11 10 7 3 360 356 352 350 346 340 341 344 342 327 294 255 236 232 233 230 227 224 221 220
306 308 310 312 315 316 318 320 322 324 328 330 332 334 336 339 340 340 341 342 341 338 335 333 332 330 330 334 337 341 344 346 348 349 350 352 355 356 358 359 0 1 2 3 5 7 9 10 11 11 11 10 8 6 6 3 358 356 355 349 348 355 2 3 343 303 245 232 233 231 226 223 220 220
304 306 309 312 315 317 318 320 322 325 328 331 332 334 337 339 339 340 341 340 338 335 333 332 330 329 329 332 336 338 341 342 343 344 346 349 351 354 355 357 359 360 0 1 2 4 5 8 10 11 11 12 11 9 8 8 6 4 1 357 356 1 7 8 357 342 278 235 231 231 229 223 219 220
302 305 309 313 315 317 318 320 322 325 328 331 332 334 337 338 338 339 339 338 335 333 332 331 331 329 329 331 334 336 338 339 339 341 343 345 347 349 352 354 356 357 358 360 1 1 2 4 6 8 10 11 11 11 11 12 13 11 5 0 360 2 6 6 5 5 348 250 223 221 225 222 218 219
301 305 310 313 315 317 318 320 322 325 328 330 332 333 336 337 337 337 337 335 333 332 332 331 331 329 328 329 331 333 334 335 337 338 340 341 343 345 347 349 351 353 355 357 359 360 0 1 2 4 6 8 9 10 12 13 14 14 11 7 4 3 3 4 8 14 12 337 233 212 214 215 216 217
301 305 310 313 315 316 317 319 322 325 328 330 331 332 334 335 335 335 334 332 331 331 331 331 330 328 327 326 327 328 330 332 333 335 336 338 339 341 343 344 346 349 351 353 355 357 358 359 0 1 2 4 6 8 11 13 13 13 13 12 11 10 6 1 2 12 20 14 347 257 217 209 210 215
301 306 310 313 314 315 317 318 322 325 327 329 330 331 333 333 333 332 331 330 330 329 329 329 329 327 325 324 324 325 327 329 330 332 334 335 337 338 339 340 342 344 346 348 350 353 355 356 358 359 359 1 3 5 7 9 11 12 12 12 12 13 13 7 359 2 10 18 11 332 239 213 210 214
301 306 310 312 314 315 316 318 321 324 326 327 328 329 331 331 331 330 329 328 328 328 328 328 327 326 325 324 324 325 325 326 327 329 330 332 333 334 336 336 337 339 341 343 345 348 350 352 354 356 358 359 360 1 3 5 8 10 11 12 11 11 12 13 9 2 355 353 358 346 262 231 224 221
301 306 310 312 313 314 315 317 320 323 324 325 326 327 328 329 328 327 326 325 325 325 325 325 325 324 325 325 325 326 326 326 327 327 328 329 331 331 332 333 334 335 337 338 340 342 345 347 349 351 354 356 357 358 359 1 3 5 7 10 10 9 8 9 10 8 357 340 334 333 278 240 237 232
301 307 310 312 313 313 314 316 319 321 323 323 323 325 326 326 325 323 322 321 321 322 322 323 323 323 324 324 325 326 326 327 327 328 329 329 330 330 330 330 331 331 332 334 336 337 339 341 343 346 348 350 352 354 356 357 358 0 3 5 7 8 7 6 5 6 4 353 338 326 299 259 242 236
301 307 310 312 312 312 312 314 317 319 320 320 321 322 322 322 321 319 318 317 318 319 320 321 321 321 322 323 324 325 325 326 327 328 329 329 328 329 329 329 329 329 329 330 331 332 334 336 338 339 341 344 346 349 351 353 354 355 357 360 2 4 5 4 3 2 2 360 352 335 309 282 261 248
301 306 309 310 310 310 311 313 315 317 317 317 318 319 319 318 316 315 314 315 316 317 317 318 319 320 320 321 322 323 323 324 326 327 328 328 328 328 328 328 328 327 328 327 328 329 330 331 333 334 336 338 340 342 344 346 349 351 352 353 356 357 359 1 2 1 359 359 358 351 335 308 283 269
300 305 308 309 309 309 309 311 313 315 316 316 316 316 315 314 312 311 311 312 313 314 315 316 317 318 319 319 320 321 322 323 325 327 327 327 327 326 326 327 327 327 327 327 326 326 326 327 328 329 331 332 334 336 338 339 341 343 345 347 349 350 351 352 356 357 358 358 357 354 348 337 319 299
299 303 306 307 307 307 308 310 311 313 314 313 313 312 311 310 309 309 309 310 311 311 313 314 315 315 316 317 318 319 321 322 323 325 325 325 325 325 326 326 327 327 327 326 326 325 325 325 325 325 326 327 329 330 332 333 334 335 337 339 340 342 343 344 346 348 351 353 353 352 349 344 336 325
297 301 304 306 306 306 307 308 310 311 311 311 310 309 308 307 307 307 307 308 308 309 310 311 312 312 313 315 316 318 319 321 322 323 323 323 323 324 325 326 327 328 328 327 327 327 326 326 325 324 323 324 325 326 326 327 327 327 328 329 331 333 334 336 337 338 340 341 342 344 344 343 339 332
297 300 303 305 305 305 305 306 308 309 309 308 307 306 305 305 304 304 305 306 306 307 308 309 309 311 312 313 315 317 318 320 321 322 322 322 322 323 324 326 327 328 329 329 329 328 327 326 325 324 323 323 323 322 321 320 320 321 322 323 324 325 326 326 327 328 329 330 331 332 333 333 333 331
296 299 301 303 303 303 303 304 305 306 306 306 305 304 303 302 302 302 303 304 305 305 306 307 308 309 311 312 314 316 317 318 319 320 320 321 322 322 323 325 327 328 329 329 329 328 328 327 325 324 323 322 321 321 320 320 320 320 319 318 317 317 317 318 319 319 320 320 321 321 322 322 322 321
294 297 299 300 300 301 301 302 302 303 303 303 302 301 300 299 300 301 302 302 303 304 304 306 307 309 310 312 313 315 316 317 318 318 319 320 321 322 323 324 326 327 328 328 328 328 327 326 325 324 322 322 321 321 321 321 320 317 316 314 314 314 313 313 312 312 312 312 312 312 311 311 311 311
294 296 297 297 298 298 299 299 299 300 300 300 300 299 298 298 299 300 300 301 302 302 303 304 306 308 309 311 312 313 314 315 316 317 318 320 321 322 322 323 325 326 327 327 327 327 325 324 324 323 321 320 319 318 317 316 316 315 314 313 313 312 311 310 309 308 307 306 305 304 304 303 302 302
294 295 295 295 295 296 296 296 297 297 298 298 297 297 297 298 298 299 299 300 301 301 302 303 305 306 308 309 310 311 312 314 315 316 318 319 320 321 321 322 323 324 325 326 326 325 324 322 321 320 319 317 316 315 315 314 314 313 312 311 309 308 307 307 306 305 304 303 301 299 298 297 296 295
293 293 292 292 293 294 294 295 295 296 296 295 295 296 297 297 297 297 298 299 299 300 301 302 303 305 306 307 308 310 311 313 314 315 316 317 318 319 320 321 321 322 323 324 323 322 321 320 319 317 317 316 314 313 313 313 312 311 310 309 308 306 305 304 303 302 301 300 299 297 296 294 292 291
290 289 289 290 290 291 292 293 293 294 294 293 294 295 295 295 296 296 297 298 298 298 300 301 302 304 305 306 307 309 310 312 313 314 315 316 317 318 318 318 319 320 321 321 321 320 319 318 317 316 315 314 313 311 310 309 309 308 307 306 305 303 303 302 301 299 297 295 294 293 292 291 289 287
288 286 287 287 288 289 291 292 292 292 292 293 293 294 294 294 295 295 295 296 296 297 299 300 302 303 304 305 307 308 310 311 312 313 315 316 316 316 316 317 317 318 318 318 318 317 317 316 314 313 312 312 310 309 308 307 306 305 304 303 301 300 299 298 297 296 295 293 291 289 288 287 286 284